Tracking 31027 objects as of 19-Jul-2025
HD Live streaming from Space Station
objects crossing your sky now

FENGYUN 1C DEB

Track FENGYUN 1C DEB now!
10-day predictions


NORAD ID: 30280
Int'l Code: 1999-025YR
Perigee: 848.5 km
Apogee: 966.0 km
Inclination: 98.8 °
Period: 103.0 minutes
Semi major axis: 7278 km
RCS: 0.043 m2 (small)
Launch date: May 10, 1999
Source: People's Republic of China (PRC)
Launch site: Taiyaun Space Center, China (TSC)

Note: This is SATELLITE DEBRIS
Your satellite tracking list
EUTE 33A (EB 3)
Track 1 satellite(s)




NASA's NSSDC Master Catalog

Two Line Element Set (TLE):
1 30280U 99025YR  25199.48338228  .00000216  00000-0  17584-3 0  9999
2 30280  98.7620 195.3332 0080698  18.4989 132.4721 13.98186138943489
Source of the keplerian elements: AFSPC